Location: Barton
(34.9640°N, 89.6892°W)
Time: 15:20:29
(UTC+00:00)

Daily predictions for brighter satellites

Satellite Brightness Start Highest point End
(mag) Time Altitude Azimuth Time Altitude Azimuth Time Altitude Azimuth
Lacrosse 4 Rocket 4.1 12:05:03 10° NNE 12:07:21 15° NE 12:09:40 10° E
Cosmos 1315 Rocket 2.8 12:05:24 10° S 12:09:05 78° E 12:12:49 10° N
Cosmos 2233 Rocket 4.5 12:04:23 10° S 12:10:27 67° E 12:16:35 10° NNE
Hubble Space Telescope 2.4 12:10:49 10° SW 12:13:58 25° S 12:17:07 10° ESE
Cosmos 2360 Rocket 2.3 12:08:50 10° SW 12:14:17 53° WNW 12:19:47 10° N
Cosmos 2278 4.4 12:10:06 10° WSW 12:15:01 31° WNW 12:19:59 10° N
USA 229 DEB 3.6 12:09:57 10° SSW 12:15:41 79° ESE 12:22:01 10° NNE
USA 229 3.6 12:10:02 10° SSW 12:15:45 78° ESE 12:22:06 10° NE
DELTA 2 R/B (1) 3.8 12:11:41 10° W 12:17:11 61° NNW 12:22:42 10° ENE
ATLAS 3B R/B 3.3 12:10:19 10° SSW 12:17:39 73° ESE 12:25:27 10° NE
Cosmos 1356 Rocket 3.4 12:14:36 10° S 12:18:26 81° E 12:22:17 10° N
Cosmos 2333 4.3 12:14:51 10° SSW 12:20:28 60° WNW 12:26:04 10° NNE
Cosmos 1802 Rocket 4.1 12:16:53 10° SSW 12:22:56 57° W 12:29:08 10° N
